Time,TemperatureF,DewpointF,PressureIn,WindDirection,WindDirectionDegrees,WindSpeedMPH,WindSpeedGustMPH,Humidity,HourlyPrecipIn,Conditions,Clouds,dailyrainin,SoftwareType,DateUTC
2013-10-13 00:12:00,60.7,54.0,30.18,NW,319,0.0,2.0,79,0.00,,,0.00,weatherlink.com 1.10,2013-10-13 04:12:00,
2013-10-13 00:27:00,60.4,53.0,30.19,WNW,293,0.0,4.0,76,0.00,,,0.00,weatherlink.com 1.10,2013-10-13 04:27:00,
2013-10-13 00:42:00,59.8,52.0,30.19,North,6,0.0,1.0,76,0.00,,,0.00,weatherlink.com 1.10,2013-10-13 04:42:00,
2013-10-13 00:57:00,59.2,52.0,30.20,WNW,291,0.0,4.0,76,0.00,,,0.00,weatherlink.com 1.10,2013-10-13 04:57:00,
2013-10-13 01:13:00,58.4,51.0,30.20,WNW,291,0.0,0.0,77,0.00,,,0.00,weatherlink.com 1.10,2013-10-13 05:13:00,
2013-10-13 01:28:00,57.5,50.0,30.21,WNW,291,0.0,1.0,77,0.00,,,0.00,weatherlink.com 1.10,2013-10-13 05:28:00,
2013-10-13 01:43:00,56.9,50.0,30.22,WNW,291,0.0,0.0,77,0.00,,,0.00,weatherlink.com 1.10,2013-10-13 05:43:00,
2013-10-13 01:58:00,56.0,49.0,30.22,WNW,291,0.0,0.0,78,0.00,,,0.00,weatherlink.com 1.10,2013-10-13 05:58:00,
2013-10-13 02:13:00,55.1,49.0,30.23,WNW,291,0.0,0.0,79,0.00,,,0.00,weatherlink.com 1.10,2013-10-13 06:13:00,
2013-10-13 02:28:00,54.2,49.0,30.24,WNW,291,0.0,0.0,81,0.00,,,0.00,weatherlink.com 1.10,2013-10-13 06:28:00,
2013-10-13 02:43:00,53.5,48.0,30.24,WNW,291,0.0,0.0,82,0.00,,,0.00,weatherlink.com 1.10,2013-10-13 06:43:00,
2013-10-13 02:58:00,52.8,48.0,30.24,WNW,291,0.0,0.0,83,0.00,,,0.00,weatherlink.com 1.10,2013-10-13 06:58:00,
2013-10-13 03:13:00,52.2,48.0,30.24,WNW,291,0.0,0.0,84,0.00,,,0.00,weatherlink.com 1.10,2013-10-13 07:13:00,
2013-10-13 03:28:00,51.7,48.0,30.25,WNW,291,0.0,0.0,86,0.00,,,0.00,weatherlink.com 1.10,2013-10-13 07:28:00,
2013-10-13 03:43:00,51.3,47.0,30.25,WNW,291,0.0,0.0,86,0.00,,,0.00,weatherlink.com 1.10,2013-10-13 07:43:00,
2013-10-13 03:58:00,50.7,47.0,30.26,WNW,291,0.0,0.0,86,0.00,,,0.00,weatherlink.com 1.10,2013-10-13 07:58:00,
2013-10-13 04:13:00,50.1,46.0,30.27,WNW,291,0.0,0.0,86,0.00,,,0.00,weatherlink.com 1.10,2013-10-13 08:13:00,
2013-10-13 04:28:00,49.6,46.0,30.27,WNW,291,0.0,0.0,86,0.00,,,0.00,weatherlink.com 1.10,2013-10-13 08:28:00,
2013-10-13 04:43:00,49.4,45.0,30.27,WNW,291,0.0,0.0,86,0.00,,,0.00,weatherlink.com 1.10,2013-10-13 08:43:00,
2013-10-13 04:58:00,48.8,45.0,30.27,WNW,291,0.0,0.0,86,0.00,,,0.00,weatherlink.com 1.10,2013-10-13 08:58:00,
2013-10-13 05:13:00,48.2,44.0,30.27,WNW,291,0.0,0.0,86,0.00,,,0.00,weatherlink.com 1.10,2013-10-13 09:13:00,
2013-10-13 05:28:00,47.7,44.0,30.27,WNW,291,0.0,0.0,86,0.00,,,0.00,weatherlink.com 1.10,2013-10-13 09:28:00,
2013-10-13 05:43:00,47.1,43.0,30.28,WNW,291,0.0,0.0,86,0.00,,,0.00,weatherlink.com 1.10,2013-10-13 09:43:00,
2013-10-13 05:58:00,47.1,43.0,30.30,WNW,291,0.0,0.0,86,0.00,,,0.00,weatherlink.com 1.10,2013-10-13 09:58:00,
2013-10-13 06:13:00,46.7,43.0,30.30,WNW,291,0.0,0.0,87,0.00,,,0.00,weatherlink.com 1.10,2013-10-13 10:13:00,
2013-10-13 06:28:00,46.2,43.0,30.31,WNW,291,0.0,0.0,87,0.00,,,0.00,weatherlink.com 1.10,2013-10-13 10:28:00,
2013-10-13 06:43:00,46.1,43.0,30.32,WNW,291,0.0,0.0,88,0.00,,,0.00,weatherlink.com 1.10,2013-10-13 10:43:00,
2013-10-13 06:58:00,45.8,43.0,30.32,WNW,291,0.0,0.0,88,0.00,,,0.00,weatherlink.com 1.10,2013-10-13 10:58:00,
2013-10-13 07:13:00,45.5,43.0,30.32,WNW,291,0.0,0.0,89,0.00,,,0.00,weatherlink.com 1.10,2013-10-13 11:13:00,
2013-10-13 07:28:00,45.4,42.0,30.33,WNW,291,0.0,0.0,89,0.00,,,0.00,weatherlink.com 1.10,2013-10-13 11:28:00,
2013-10-13 07:44:00,45.2,42.0,30.33,WNW,291,0.0,0.0,89,0.00,,,0.00,weatherlink.com 1.10,2013-10-13 11:44:00,
2013-10-13 07:59:00,44.9,42.0,30.34,WNW,291,0.0,0.0,90,0.01,,,0.01,weatherlink.com 1.10,2013-10-13 11:59:00,
2013-10-13 08:14:00,44.6,42.0,30.34,WNW,291,0.0,0.0,90,0.01,,,0.01,weatherlink.com 1.10,2013-10-13 12:14:00,
2013-10-13 08:29:00,44.6,42.0,30.35,WNW,291,0.0,0.0,90,0.01,,,0.01,weatherlink.com 1.10,2013-10-13 12:29:00,
2013-10-13 08:44:00,44.8,42.0,30.36,WNW,291,0.0,0.0,91,0.01,,,0.01,weatherlink.com 1.10,2013-10-13 12:44:00,
2013-10-13 08:59:00,45.5,43.0,30.36,WNW,291,0.0,0.0,91,0.00,,,0.01,weatherlink.com 1.10,2013-10-13 12:59:00,
2013-10-13 09:14:00,47.3,45.0,30.36,WNW,291,0.0,0.0,92,0.00,,,0.01,weatherlink.com 1.10,2013-10-13 13:14:00,
2013-10-13 09:29:00,49.2,47.0,30.37,WNW,291,0.0,0.0,92,0.00,,,0.01,weatherlink.com 1.10,2013-10-13 13:29:00,
2013-10-13 09:44:00,52.0,49.0,30.37,WNW,291,0.0,0.0,88,0.00,,,0.01,weatherlink.com 1.10,2013-10-13 13:44:00,
2013-10-13 09:59:00,55.0,49.0,30.38,WNW,291,0.0,0.0,81,0.00,,,0.01,weatherlink.com 1.10,2013-10-13 13:59:00,
2013-10-13 10:14:00,58.4,49.0,30.38,North,349,0.0,0.0,70,0.00,,,0.01,weatherlink.com 1.10,2013-10-13 14:14:00,
2013-10-13 10:29:00,60.7,47.0,30.38,West,260,0.0,3.0,62,0.00,,,0.01,weatherlink.com 1.10,2013-10-13 14:29:00,
2013-10-13 10:44:00,62.3,47.0,30.38,ESE,118,1.0,3.0,58,0.00,,,0.01,weatherlink.com 1.10,2013-10-13 14:44:00,
2013-10-13 10:59:00,63.5,46.0,30.39,WSW,249,0.0,5.0,54,0.00,,,0.01,weatherlink.com 1.10,2013-10-13 14:59:00,
2013-10-13 11:14:00,63.9,47.0,30.39,WNW,293,0.0,4.0,54,0.00,,,0.01,weatherlink.com 1.10,2013-10-13 15:14:00,
2013-10-13 11:29:00,63.9,45.0,30.39,SE,131,0.0,4.0,51,0.00,,,0.01,weatherlink.com 1.10,2013-10-13 15:29:00,
2013-10-13 11:44:00,64.0,45.0,30.39,NE,42,0.0,7.0,51,0.00,,,0.01,weatherlink.com 1.10,2013-10-13 15:44:00,
2013-10-13 11:59:00,64.2,44.0,30.39,SE,133,2.0,4.0,49,0.00,,,0.01,weatherlink.com 1.10,2013-10-13 15:59:00,
2013-10-13 12:14:00,64.5,44.0,30.40,NW,318,0.0,6.0,47,0.00,,,0.01,weatherlink.com 1.10,2013-10-13 16:14:00,
2013-10-13 12:29:00,64.0,44.0,30.40,NNW,328,0.0,3.0,48,0.00,,,0.01,weatherlink.com 1.10,2013-10-13 16:29:00,
2013-10-13 12:44:00,64.2,43.0,30.40,NW,319,0.0,5.0,46,0.00,,,0.01,weatherlink.com 1.10,2013-10-13 16:44:00,
2013-10-13 12:59:00,64.5,44.0,30.40,ESE,110,1.0,5.0,47,0.00,,,0.01,weatherlink.com 1.10,2013-10-13 16:59:00,
2013-10-13 13:14:00,64.3,45.0,30.40,SE,130,1.0,4.0,49,0.00,,,0.01,weatherlink.com 1.10,2013-10-13 17:14:00,
2013-10-13 13:29:00,64.0,41.0,30.40,SW,228,3.0,5.0,44,0.00,,,0.01,weatherlink.com 1.10,2013-10-13 17:29:00,
2013-10-13 13:44:00,64.0,42.0,30.39,SW,215,0.0,7.0,45,0.00,,,0.01,weatherlink.com 1.10,2013-10-13 17:44:00,
2013-10-13 13:59:00,64.2,43.0,30.39,West,276,0.0,4.0,46,0.00,,,0.01,weatherlink.com 1.10,2013-10-13 17:59:00,
2013-10-13 14:14:00,64.2,41.0,30.39,West,281,0.0,5.0,43,0.00,,,0.01,weatherlink.com 1.10,2013-10-13 18:14:00,
2013-10-13 14:29:00,64.0,43.0,30.39,NE,52,0.0,6.0,46,0.00,,,0.01,weatherlink.com 1.10,2013-10-13 18:29:00,
2013-10-13 14:44:00,63.9,40.0,30.39,SW,228,2.0,4.0,41,0.00,,,0.01,weatherlink.com 1.10,2013-10-13 18:44:00,
2013-10-13 14:59:00,63.5,41.0,30.39,WSW,245,0.0,7.0,44,0.00,,,0.01,weatherlink.com 1.10,2013-10-13 18:59:00,
2013-10-13 15:14:00,63.4,40.0,30.39,WNW,292,0.0,5.0,42,0.00,,,0.01,weatherlink.com 1.10,2013-10-13 19:14:00,
2013-10-13 15:29:00,63.1,40.0,30.39,NNE,13,0.0,7.0,43,0.00,,,0.01,weatherlink.com 1.10,2013-10-13 19:29:00,
2013-10-13 15:44:00,62.3,40.0,30.39,ESE,103,0.0,5.0,44,0.00,,,0.01,weatherlink.com 1.10,2013-10-13 19:44:00,
2013-10-13 16:00:00,62.0,39.0,30.39,NW,308,0.0,5.0,43,0.00,,,0.01,weatherlink.com 1.10,2013-10-13 20:00:00,
2013-10-13 16:14:00,61.6,40.0,30.39,WNW,300,1.0,7.0,45,0.00,,,0.01,weatherlink.com 1.10,2013-10-13 20:14:00,
2013-10-13 16:29:00,61.3,38.0,30.39,SSE,151,2.0,4.0,43,0.00,,,0.01,weatherlink.com 1.10,2013-10-13 20:29:00,
2013-10-13 16:44:00,61.0,39.0,30.39,WNW,290,3.0,7.0,45,0.00,,,0.01,weatherlink.com 1.10,2013-10-13 20:44:00,
2013-10-13 16:59:00,60.5,39.0,30.39,SW,233,0.0,6.0,45,0.00,,,0.01,weatherlink.com 1.10,2013-10-13 20:59:00,
2013-10-13 17:14:00,60.2,40.0,30.39,NNW,328,3.0,3.0,48,0.00,,,0.01,weatherlink.com 1.10,2013-10-13 21:14:00,
2013-10-13 17:29:00,59.5,40.0,30.39,NNE,28,0.0,4.0,49,0.00,,,0.01,weatherlink.com 1.10,2013-10-13 21:29:00,
2013-10-13 17:44:00,59.0,40.0,30.40,WNW,290,1.0,6.0,49,0.00,,,0.01,weatherlink.com 1.10,2013-10-13 21:44:00,
2013-10-13 17:59:00,58.6,40.0,30.40,North,5,0.0,2.0,51,0.00,,,0.01,weatherlink.com 1.10,2013-10-13 21:59:00,
2013-10-13 18:14:00,57.6,40.0,30.40,NNW,345,0.0,4.0,53,0.00,,,0.01,weatherlink.com 1.10,2013-10-13 22:14:00,
2013-10-13 18:29:00,56.7,40.0,30.41,North,352,0.0,3.0,54,0.00,,,0.01,weatherlink.com 1.10,2013-10-13 22:29:00,
2013-10-13 18:44:00,55.9,40.0,30.41,West,266,0.0,7.0,56,0.00,,,0.01,weatherlink.com 1.10,2013-10-13 22:44:00,
2013-10-13 18:59:00,55.1,40.0,30.41,NW,304,0.0,2.0,58,0.00,,,0.01,weatherlink.com 1.10,2013-10-13 22:59:00,
2013-10-13 19:15:00,54.1,40.0,30.42,West,262,0.0,2.0,60,0.00,,,0.01,weatherlink.com 1.10,2013-10-13 23:15:00,
2013-10-13 19:30:00,53.2,40.0,30.42,North,3,0.0,0.0,62,0.00,,,0.01,weatherlink.com 1.10,2013-10-13 23:30:00,
2013-10-13 19:45:00,52.2,41.0,30.43,North,3,0.0,0.0,65,0.00,,,0.01,weatherlink.com 1.10,2013-10-13 23:45:00,
2013-10-13 20:00:00,51.3,41.0,30.43,North,3,0.0,0.0,67,0.00,,,0.01,weatherlink.com 1.10,2013-10-14 00:00:00,
2013-10-13 20:15:00,50.2,40.0,30.42,North,3,0.0,0.0,69,0.00,,,0.01,weatherlink.com 1.10,2013-10-14 00:15:00,
2013-10-13 20:30:00,49.1,40.0,30.43,North,3,0.0,0.0,72,0.00,,,0.01,weatherlink.com 1.10,2013-10-14 00:30:00,
2013-10-13 20:45:00,48.0,40.0,30.42,North,3,0.0,0.0,74,0.00,,,0.01,weatherlink.com 1.10,2013-10-14 00:45:00,
2013-10-13 21:00:00,47.1,40.0,30.43,North,3,0.0,0.0,76,0.00,,,0.01,weatherlink.com 1.10,2013-10-14 01:00:00,
2013-10-13 21:15:00,46.5,40.0,30.43,North,3,0.0,0.0,78,0.00,,,0.01,weatherlink.com 1.10,2013-10-14 01:15:00,
2013-10-13 21:30:00,46.0,40.0,30.43,North,3,0.0,0.0,79,0.00,,,0.01,weatherlink.com 1.10,2013-10-14 01:30:00,
2013-10-13 21:45:00,45.4,40.0,30.44,North,3,0.0,0.0,80,0.00,,,0.01,weatherlink.com 1.10,2013-10-14 01:45:00,
2013-10-13 22:00:00,45.1,40.0,30.44,North,3,0.0,0.0,82,0.00,,,0.01,weatherlink.com 1.10,2013-10-14 02:00:00,
2013-10-13 22:15:00,44.8,40.0,30.44,North,3,0.0,0.0,83,0.00,,,0.01,weatherlink.com 1.10,2013-10-14 02:15:00,
2013-10-13 22:30:00,44.3,40.0,30.44,North,3,0.0,0.0,84,0.00,,,0.01,weatherlink.com 1.10,2013-10-14 02:30:00,
2013-10-13 22:45:00,43.9,39.0,30.44,North,3,0.0,0.0,84,0.00,,,0.01,weatherlink.com 1.10,2013-10-14 02:45:00,
2013-10-13 23:00:00,43.6,39.0,30.45,North,3,0.0,0.0,85,0.00,,,0.01,weatherlink.com 1.10,2013-10-14 03:00:00,
2013-10-13 23:15:00,43.2,39.0,30.45,North,3,0.0,0.0,86,0.00,,,0.01,weatherlink.com 1.10,2013-10-14 03:15:00,
2013-10-13 23:30:00,42.9,39.0,30.45,North,3,0.0,0.0,86,0.00,,,0.01,weatherlink.com 1.10,2013-10-14 03:30:00,
2013-10-13 23:45:00,42.6,39.0,30.46,North,3,0.0,0.0,87,0.00,,,0.01,weatherlink.com 1.10,2013-10-14 03:45:00,